Weather History for K9A4 - June, 2013

Change the Weather History Date:

Tuesday, June 4, 2013

  Actual Average (KMSL) Record (KMSL)
Temperature  
Mean Temperature 72 °F 75 °F  
Max Temperature 86 °F 86 °F 99 °F (1925)
Min Temperature 57 °F 64 °F 50 °F (1929)
Degree Days  
Heating Degree Days 0 0  
Month to date heating degree days 0  
Since 1 June heating degree days 0  
Since 1 July heating degree days 3103  
Cooling Degree Days 6 10  
Month to date cooling degree days 38  
Year to date cooling degree days 282  
Since 1 June cooling degree days 38  
Growing Degree Days 22 (Base 50)    
Moisture  
Dew Point 59 °F    
Average Humidity 70    
Maximum Humidity 100    
Minimum Humidity 35    
Precipitation  
Precipitation 0.00 in 0.17 in 1.61 in (1903)
Month to date precipitation 0.68  
Year to date precipitation 24.18  
Snow  
Snow 0.00 in - - ()
Month to date snowfall  
Since 1 June snowfall  
Since 1 July snowfall  
Snow Depth -    
Sea Level Pressure  
Sea Level Pressure 30.01 in    
Wind  
Wind Speed 1 mph (NE)    
Max Wind Speed 7 mph    
Max Gust Speed -    
Visibility 10 miles    
Events      
T = Trace of Precipitation, MM = Missing Value Source: NWS Daily Summary

Daily Weather History Graph

Daily Weather History Graph

Search for Another Location

Airport or City:

Trip Planner

Search our weather history database for the weather conditions in past years. The results will help you decide how hot, cold, wet, or windy it might be!

Date:

Astronomy

Jun. 04, 2013 Rise Set
Actual Time 5:36 AM CDT 7:59 PM CDT
Civil Twilight 5:07 AM CDT 8:28 PM CDT
Nautical Twilight 4:31 AM CDT 9:04 PM CDT
Astronomical Twilight 3:52 AM CDT 9:43 PM CDT
Moon 2:58 AM CDT (6/4) 4:34 PM CDT (6/4)
Length of Visible Light 15h 20m
Length of Day
14h 22m
Waning Crescent, 14% of the Moon is Illuminated
Jun 4
Waning Crescent
Jun 8
New
Jun 16
First Quarter
Jun 23
Full
Jun 29
Last Quarter

Hourly Weather History & Observations

Time (CDT) Temp. Heat Index Dew Point Humidity Pressure Visibility Wind Dir Wind Speed Gust Speed Precip Events Conditions
12:15 AM 62.6 °F - 60.8 °F 94% 30.02 in 10.0 mi Calm Calm - N/A   Mostly Cloudy
12:35 AM 60.8 °F - 60.8 °F 100% 30.01 in 10.0 mi Calm Calm - N/A   Scattered Clouds
12:55 AM 60.8 °F - 60.8 °F 100% 30.01 in 10.0 mi Calm Calm - N/A   Scattered Clouds
1:15 AM 60.8 °F - 60.8 °F 100% 30.01 in 10.0 mi Calm Calm - N/A   Clear
1:35 AM 59.0 °F - 59.0 °F 100% 30.00 in 10.0 mi Calm Calm - N/A   Clear
1:55 AM 59.0 °F - 59.0 °F 100% 30.00 in 7.0 mi Calm Calm - N/A   Clear
2:15 AM 59.0 °F - 59.0 °F 100% 30.00 in 10.0 mi Calm Calm - N/A   Clear
2:35 AM 59.0 °F - 59.0 °F 100% 30.00 in 10.0 mi Calm Calm - N/A   Clear
2:55 AM 59.0 °F - 59.0 °F 100% 30.00 in 10.0 mi Calm Calm - N/A   Clear
3:15 AM 59.0 °F - 59.0 °F 100% 30.00 in 10.0 mi Calm Calm - N/A   Clear
3:35 AM 59.0 °F - 59.0 °F 100% 30.00 in 10.0 mi Calm Calm - N/A   Clear
3:55 AM 59.0 °F - 59.0 °F 100% 30.00 in 10.0 mi Calm Calm - N/A   Clear
4:15 AM 59.0 °F - 59.0 °F 100% 30.01 in 7.0 mi Calm Calm - N/A   Clear
4:35 AM 59.0 °F - 59.0 °F 100% 30.01 in 7.0 mi Calm Calm - N/A   Clear
4:55 AM 57.2 °F - 57.2 °F 100% 30.01 in 7.0 mi Calm Calm - N/A   Scattered Clouds
5:15 AM 57.2 °F - 57.2 °F 100% 30.02 in 7.0 mi Calm Calm - N/A   Mostly Cloudy
5:35 AM 57.2 °F - 57.2 °F 100% 30.02 in 7.0 mi Calm Calm - N/A   Overcast
5:55 AM 57.2 °F - 57.2 °F 100% 30.02 in 7.0 mi Calm Calm - N/A   Scattered Clouds
6:15 AM 59.0 °F - 59.0 °F 100% 30.02 in 10.0 mi Calm Calm - N/A   Scattered Clouds
6:35 AM 60.8 °F - 60.8 °F 100% 30.02 in 10.0 mi Calm Calm - N/A   Scattered Clouds
6:55 AM 62.6 °F - 60.8 °F 94% 30.02 in 10.0 mi Calm Calm - N/A   Scattered Clouds
7:15 AM 62.6 °F - 60.8 °F 94% 30.02 in 10.0 mi Calm Calm - N/A   Scattered Clouds
7:35 AM 64.4 °F - 62.6 °F 94% 30.03 in 10.0 mi East 3.5 mph - N/A   Scattered Clouds
7:55 AM 66.2 °F - 62.6 °F 88% 30.04 in 10.0 mi East 5.8 mph - N/A   Mostly Cloudy
8:15 AM 68.0 °F - 60.8 °F 78% 30.05 in 10.0 mi East 4.6 mph - N/A   Overcast
8:35 AM 69.8 °F - 60.8 °F 73% 30.05 in 10.0 mi East 4.6 mph - N/A   Mostly Cloudy
8:55 AM 71.6 °F - 60.8 °F 69% 30.05 in 10.0 mi Calm Calm - N/A   Scattered Clouds
9:15 AM 73.4 °F - 60.8 °F 65% 30.05 in 10.0 mi NE 3.5 mph - N/A   Clear
9:35 AM 73.4 °F - 59.0 °F 61% 30.05 in 10.0 mi Calm Calm - N/A   Clear
9:55 AM 77.0 °F - 60.8 °F 57% 30.06 in 10.0 mi Calm Calm - N/A   Clear
10:15 AM 77.0 °F - 59.0 °F 54% 30.05 in 10.0 mi NE 4.6 mph - N/A   Scattered Clouds
10:35 AM 77.0 °F - 59.0 °F 54% 30.05 in 10.0 mi East 5.8 mph - N/A   Mostly Cloudy
10:55 AM 78.8 °F - 57.2 °F 47% 30.04 in 10.0 mi East 3.5 mph - N/A   Scattered Clouds
11:15 AM 78.8 °F - 55.4 °F 44% 30.04 in 10.0 mi NE 3.5 mph - N/A   Clear
11:35 AM 80.6 °F 80.3 °F 53.6 °F 39% 30.04 in 10.0 mi ENE 5.8 mph - N/A   Clear
11:55 AM 80.6 °F 80.5 °F 55.4 °F 42% 30.05 in 10.0 mi East 4.6 mph - N/A   Clear
12:15 PM 80.6 °F 80.5 °F 55.4 °F 42% 30.04 in 10.0 mi Calm Calm - N/A   Scattered Clouds
12:35 PM 80.6 °F 80.3 °F 53.6 °F 39% 30.04 in 10.0 mi Calm Calm - N/A   Scattered Clouds
12:55 PM 82.4 °F 81.7 °F 55.4 °F 39% 30.03 in 10.0 mi Calm Calm - N/A   Scattered Clouds
1:15 PM 82.4 °F 81.7 °F 55.4 °F 39% 30.03 in 10.0 mi NNE 4.6 mph - N/A   Scattered Clouds
1:35 PM 80.6 °F 80.3 °F 53.6 °F 39% 30.03 in 10.0 mi ENE 3.5 mph - N/A   Mostly Cloudy
1:55 PM 82.4 °F 81.7 °F 55.4 °F 39% 30.02 in 10.0 mi SE 4.6 mph - N/A   Mostly Cloudy
2:15 PM 84.2 °F 82.8 °F 53.6 °F 35% 30.01 in 10.0 mi Calm Calm - N/A   Scattered Clouds
2:35 PM 86.0 °F 84.5 °F 55.4 °F 35% 30.01 in 10.0 mi WNW 5.8 mph - N/A   Scattered Clouds
2:55 PM 84.2 °F 83.5 °F 57.2 °F 40% 30.01 in 10.0 mi WNW 6.9 mph - N/A   Mostly Cloudy
3:15 PM 84.2 °F 83.0 °F 55.4 °F 37% 30.00 in 10.0 mi NW 5.8 mph - N/A   Scattered Clouds
3:35 PM 84.2 °F 83.0 °F 55.4 °F 37% 30.00 in 10.0 mi WSW 5.8 mph - N/A   Scattered Clouds
3:55 PM 84.2 °F 83.0 °F 55.4 °F 37% 29.99 in 10.0 mi West 3.5 mph - N/A   Scattered Clouds
4:15 PM 84.2 °F 83.0 °F 55.4 °F 37% 29.98 in 10.0 mi NW 4.6 mph - N/A   Scattered Clouds
4:35 PM 86.0 °F 84.9 °F 57.2 °F 37% 29.98 in 10.0 mi Calm Calm - N/A   Clear
4:55 PM 86.0 °F 84.9 °F 57.2 °F 37% 29.97 in 10.0 mi WNW 5.8 mph - N/A   Clear
5:15 PM 82.4 °F 81.7 °F 55.4 °F 39% 29.97 in 10.0 mi WSW 3.5 mph - N/A   Clear
5:35 PM 84.2 °F 83.0 °F 55.4 °F 37% 29.96 in 10.0 mi Calm Calm - N/A   Clear
5:55 PM 84.2 °F 83.5 °F 57.2 °F 40% 29.97 in 10.0 mi Calm Calm - N/A   Clear
6:15 PM 82.4 °F 82.0 °F 57.2 °F 42% 29.96 in 10.0 mi East 4.6 mph - N/A   Clear
6:35 PM 82.4 °F 82.0 °F 57.2 °F 42% 29.96 in 10.0 mi Calm Calm - N/A   Clear
6:55 PM 80.6 °F 81.1 °F 59.0 °F 48% 29.96 in 10.0 mi ENE 5.8 mph - N/A   Clear
7:15 PM 78.8 °F - 59.0 °F 51% 29.97 in 10.0 mi ENE 4.6 mph - N/A   Clear
7:35 PM 78.8 °F - 60.8 °F 54% 29.97 in 10.0 mi NE 3.5 mph - N/A   Clear
7:55 PM 77.0 °F - 60.8 °F 57% 29.97 in 10.0 mi ENE 3.5 mph - N/A   Clear
8:15 PM 73.4 °F - 62.6 °F 69% 29.97 in 10.0 mi Calm Calm - N/A   Clear
8:35 PM 73.4 °F - 62.6 °F 69% 29.97 in 10.0 mi Calm Calm - N/A   Clear
8:55 PM 69.8 °F - 62.6 °F 78% 29.97 in 10.0 mi Calm Calm - N/A   Clear
9:15 PM 69.8 °F - 62.6 °F 78% 29.98 in 10.0 mi Calm Calm - N/A   Clear
9:35 PM 68.0 °F - 62.6 °F 83% 29.99 in 10.0 mi Calm Calm - N/A   Clear
9:55 PM 68.0 °F - 64.4 °F 88% 29.99 in 10.0 mi Calm Calm - N/A   Clear
10:15 PM 68.0 °F - 62.6 °F 83% 29.99 in 10.0 mi Calm Calm - N/A   Clear
10:35 PM 66.2 °F - 64.4 °F 94% 30.00 in 10.0 mi Calm Calm - N/A   Clear
10:55 PM 66.2 °F - 64.4 °F 94% 30.00 in 10.0 mi Calm Calm - N/A   Clear
11:15 PM 66.2 °F - 64.4 °F 94% 30.00 in 10.0 mi Calm Calm - N/A   Clear
11:35 PM 64.4 °F - 64.4 °F 100% 30.01 in 10.0 mi Calm Calm - N/A   Clear
11:55 PM 64.4 °F - 62.6 °F 94% 30.00 in 10.0 mi Calm Calm - N/A   Clear